RH
14 12 10 12 24 48 59 43 57 56 32 29 37 36 33 12 14 82 42 25 21 24 22 11 8 5 7 8 8 8 9 10 10 10 11 10 10 10 9 10 9 8 9 9 9 9 10 10 11
16 15 12 13 48 55 64 42 71 54 27 24 25 37 94 41 14 8 8 18 22 19 24 18 9 7 5 6 8 9 9 10 10 10 10 10 9 9 9 8 8 9 9 10 10 10 10 9 10
16 18 16 14 61 64 66 40 61 24 32 24 32 42 37 36 29 17 7 6 13 18 24 21 16 8 6 5 7 7 7 8 8 9 9 9 8 8 8 8 8 8 9 8 7 8 10 11 11
13 18 16 17 58 39 38 19 23 28 27 26 77 72 30 38 31 22 27 12 7 13 21 23 24 14 8 6 6 7 7 8 8 8 8 8 8 9 9 9 9 9 9 11 12 11 9 8 11
10 18 25 63 19 19 18 19 21 29 25 21 36 96 34 39 37 18 21 26 14 13 16 19 24 19 10 8 7 8 8 8 9 8 8 8 8 9 10 11 11 12 13 14 17 18 16 13 11
14 16 36 65 31 22 21 19 20 24 26 25 64 84 39 41 34 13 11 16 22 18 14 12 16 19 17 10 8 8 8 8 8 9 9 9 9 9 9 9 8 8 10 12 15 20 23 25 23
22 26 53 60 27 21 23 22 23 26 43 88 51 83 52 44 35 17 12 14 14 21 23 20 17 14 13 13 11 10 10 11 11 11 10 9 8 8 9 9 10 10 11 11 12 13 16 22 26
28 34 32 29 35 23 22 26 26 27 34 33 34 96 80 43 49 33 20 15 20 20 19 25 22 20 17 17 15 12 11 11 11 12 13 14 16 17 18 22 20 19 27 30 18 12 14 15 18
28 34 44 45 29 26 26 29 28 31 31 33 35 41 46 48 50 52 42 20 18 18 19 24 33 34 25 27 30 25 23 23 24 24 24 30 38 50 55 58 56 53 60 63 67 38 17 16 19
27 35 24 28 45 47 30 27 26 34 35 38 38 40 44 51 51 55 58 55 38 22 21 24 28 36 31 31 36 31 32 31 35 36 34 37 42 51 67 61 63 75 81 83 76 67 77 65 54
29 32 24 28 32 40 37 49 33 32 38 59 38 40 48 52 54 54 58 63 65 60 43 45 44 41 38 38 29 28 26 32 33 42 46 44 42 44 56 49 51 64 92 85 80 97 72 67 65
25 28 27 22 22 27 25 28 55 54 40 35 41 45 48 54 54 55 60 55 57 65 69 70 76 71 55 40 29 46 43 29 35 47 51 58 64 58 59 48 39 58 96 84 70 80 88 96 89
26 25 23 24 21 28 28 30 30 38 51 51 48 46 47 50 53 54 60 60 62 62 68 73 76 80 88 88 83 88 71 63 55 52 52 57 70 73 75 94 90 77 73 64 61 53 60 59 62
18 24 24 22 25 29 32 33 30 37 31 54 55 60 57 62 60 50 61 56 63 72 75 76 74 85 86 92 92 95 87 79 83 82 78 77 73 61 70 68 58 66 72 81 64 58 51 44 39
16 19 23 25 25 29 37 34 31 29 33 47 59 65 77 53 54 58 60 66 72 72 73 78 78 86 84 74 63 56 65 59 64 59 59 58 56 58 65 63 55 55 58 51 48 47 46 44 45
17 17 20 31 22 28 39 76 39 30 33 37 46 62 66 85 86 71 80 91 94 82 89 96 96 96 95 88 69 70 78 78 83 84 83 70 68 51 45 47 52 51 49 49 47 48 47 43 45
21 19 45 22 24 26 33 40 52 29 34 35 35 35 45 61 70 90 86 94 96 96 97 92 90 96 98 96 96 98 99 93 96 87 80 73 61 57 61 66 61 65 57 52 48 46 44 44 48
43 34 22 21 68 25 31 38 40 40 34 39 38 37 40 38 47 52 62 85 89 96 96 97 97 86 77 74 70 78 88 95 90 79 82 88 85 88 98 84 79 77 80 63 57 55 54 54 52
12 17 17 22 25 26 32 48 60 49 34 38 40 40 42 44 47 49 53 65 69 73 86 93 94 95 96 97 97 97 97 94 85 91 80 87 87 98 94 99 88 83 96 93 91 83 66 62 59
13 13 16 20 23 23 28 36 50 49 43 46 48 52 52 51 54 56 57 67 80 84 80 82 81 78 81 92 92 94 93 94 96 93 95 96 97 95 91 80 76 82 95 89 98 98 96 96 79
24 27 38 53 29 30 49 61 57 78 85 59 58 58 55 60 64 68 71 84 92 85 71 67 70 72 67 62 58 57 62 75 88 95 98 98 91 95 92 90 94 88 87 92 90 80 94 97 96
37 41 48 60 46 33 79 92 98 89 80 89 72 62 57 68 75 64 73 78 72 70 58 54 55 54 57 60 61 60 56 51 49 55 71 84 93 97 96 96 95 95 97 98 94 89 92 97 100
59 55 48 36 31 31 40 99 98 96 98 70 85 86 68 64 67 83 79 75 73 68 60 54 56 57 58 59 57 54 44 40 46 47 49 74 85 93 97 93 92 95 98 97 97 97 98 98 98
66 62 55 53 52 65 78 100 92 98 91 96 80 71 73 75 72 83 76 69 64 51 38 32 37 48 58 60 57 52 47 42 44 51 58 96 99 98 96 97 97 97 97 97 96 97 96 96 95
57 55 53 85 100 94 94 94 97 91 59 79 78 78 74 74 68 68 73 54 45 41 48 47 36 31 42 58 61 54 50 53 58 62 62 56 63 78 98 100 98 97 97 95 96 97 97 96 95
65 53 49 74 100 90 93 97 98 79 78 72 78 83 81 72 60 62 63 50 50 55 57 50 39 27 31 47 49 51 66 79 85 77 64 68 76 88 94 91 93 98 97 97 97 97 97 97 98
66 64 43 39 26 58 90 100 91 98 82 77 95 86 68 70 78 80 81 73 74 62 40 28 21 24 36 53 54 61 81 96 94 84 88 88 92 93 99 99 98 98 99 100 95 91 92 92 92
38 38 48 57 40 70 98 99 90 91 97 96 85 81 82 91 85 87 83 77 57 47 41 32 42 50 53 60 68 82 86 86 76 90 100 100 100 100 100 100 98 98 98 96 93 92 94 93 86
60 39 29 38 46 72 74 75 85 97 93 97 86 78 92 94 87 77 47 24 29 37 42 51 71 71 67 76 82 84 88 98 98 97 100 100 100 100 100 100 98 98 97 96 96 94 73 50 26
37 32 26 30 40 49 95 88 83 67 53 35 22 34 54 66 27 16 16 22 35 55 64 71 74 81 88 82 87 92 92 93 94 94 95 95 95 100 100 100 100 91 66 38 24 17 14 14 14
Wind_Speed
6 6 5 6 4 12 10 6 5 4 6 7 10 13 13 12 11 11 9 4 4 1 1 2 4 3 0 2 2 5 7 7 7 6 5 5 6 7 5 4 4 4 4 5 5 5 6 7 5
9 6 5 4 11 4 5 3 5 8 7 9 11 14 8 14 16 14 9 3 3 1 1 1 2 3 2 1 2 2 2 2 1 0 1 2 2 3 4 5 7 8 8 9 10 10 10 11 11
7 7 4 3 7 10 13 8 10 8 9 8 13 5 9 16 18 17 15 8 3 3 1 1 3 2 3 4 3 3 4 4 4 4 6 6 6 7 7 8 9 10 11 13 15 15 14 13 14
9 6 3 2 5 14 14 9 7 9 11 8 3 14 11 12 14 15 9 10 6 3 2 2 3 3 5 7 7 7 7 6 6 7 8 9 10 11 11 12 13 13 14 16 17 18 18 18 17
9 6 3 4 9 6 10 8 7 9 11 10 6 11 15 13 16 13 11 9 11 7 6 5 7 7 7 9 11 11 10 10 9 10 11 11 11 12 14 15 15 15 15 15 16 17 19 20 20
10 7 2 7 8 7 7 9 9 8 11 9 10 12 14 14 15 11 13 12 12 10 9 8 8 10 12 13 14 13 13 14 14 14 15 16 16 17 18 19 20 20 19 18 18 19 19 19 20
10 9 2 12 12 8 7 9 9 10 12 9 7 10 15 14 13 13 13 13 13 13 13 12 10 11 13 15 16 16 16 15 15 16 18 20 22 23 23 24 24 24 24 23 22 22 22 22 21
10 11 5 8 10 10 8 9 9 10 13 11 7 7 19 14 13 14 16 15 15 16 17 16 17 16 15 16 17 19 20 19 18 19 20 21 23 23 24 24 24 25 25 24 26 26 24 24 25
11 9 9 10 12 16 9 11 10 9 14 14 14 15 18 16 15 15 16 16 18 19 20 20 19 20 21 21 22 22 22 21 22 22 23 24 25 25 26 27 25 26 27 28 26 27 25 23 24
13 10 10 11 12 14 10 12 13 12 16 17 18 17 18 17 17 18 17 19 20 20 22 22 24 24 26 27 28 27 29 29 30 30 30 30 29 29 30 28 29 27 21 20 28 28 25 24 24
14 13 14 10 11 11 14 13 10 15 16 20 23 23 20 20 20 20 22 21 20 25 26 26 28 30 31 31 32 31 31 32 32 32 32 32 33 34 34 34 31 30 28 29 27 29 25 25 26
18 18 16 17 15 14 13 12 12 14 18 23 23 23 23 21 22 24 26 29 27 28 28 32 33 32 33 33 34 33 33 34 34 34 34 35 35 35 36 35 34 34 31 30 29 29 28 29 30
23 23 21 21 21 17 18 14 12 17 17 23 22 24 25 25 27 30 33 32 32 32 34 34 36 38 39 34 33 34 33 35 35 37 37 37 36 37 36 38 36 34 33 33 32 33 34 35 34
24 26 25 25 24 20 19 17 16 19 20 22 24 23 27 27 31 36 34 34 35 34 34 34 34 38 38 35 36 34 35 34 34 34 35 37 39 41 40 39 40 36 36 35 37 36 37 36 36
25 25 28 28 26 24 21 24 19 20 22 22 24 26 28 28 28 30 32 31 32 32 31 33 35 37 37 38 38 40 39 40 41 41 41 42 42 43 42 43 43 41 41 41 41 40 40 40 39
26 25 25 36 27 25 21 17 27 23 22 20 19 22 26 25 28 25 25 27 29 29 30 32 34 34 35 37 38 40 42 43 43 44 45 46 46 46 46 46 44 44 45 45 44 43 42 43 43
28 24 26 33 33 31 24 23 35 29 26 26 22 20 21 23 24 25 31 35 33 31 34 37 35 34 36 39 40 42 45 46 47 48 48 50 48 46 47 48 49 48 47 46 45 45 45 45 46
24 29 26 27 36 31 29 28 30 36 29 27 28 23 22 21 20 23 26 31 36 39 35 39 38 41 44 46 48 48 50 51 50 48 51 53 51 50 50 46 48 52 51 49 51 51 50 50 50
29 31 28 30 34 38 32 31 29 39 34 32 30 27 25 24 23 26 30 28 34 34 36 37 41 54 53 49 50 52 53 53 51 51 54 57 53 55 53 53 54 55 56 58 56 56 54 55 57
31 30 28 31 35 36 31 34 32 43 37 35 31 27 27 28 27 28 32 35 42 37 34 37 39 41 41 41 45 49 53 56 58 61 60 57 55 54 55 56 60 61 63 62 57 59 60 57 57
30 30 29 33 34 37 37 36 28 44 25 34 31 30 30 33 32 34 37 41 36 28 30 33 35 38 39 41 43 45 47 50 51 54 58 58 62 63 63 64 64 64 66 65 64 64 62 64 64
38 37 38 37 37 35 27 26 24 30 35 31 34 35 33 35 38 42 44 39 33 31 35 37 37 39 43 45 47 50 50 51 52 54 55 52 49 52 55 54 54 57 66 68 68 69 65 63 66
33 35 34 31 33 34 32 31 24 36 34 40 41 26 36 42 43 42 38 33 34 34 40 42 44 46 46 46 48 52 53 55 54 55 56 55 55 53 48 48 47 48 49 51 56 59 60 63 63
32 28 29 30 31 32 29 25 21 34 32 28 35 35 42 44 39 33 32 35 37 35 33 38 43 46 49 51 52 55 57 55 56 58 58 56 56 57 54 48 50 53 53 53 53 54 53 52 54
15 16 19 16 18 22 25 21 17 30 33 33 34 38 41 39 32 34 33 35 32 32 40 45 47 47 46 49 52 54 52 53 54 57 60 59 59 62 60 59 58 59 59 59 58 57 58 58 55
18 17 18 20 16 18 27 21 27 29 26 34 37 37 36 34 37 33 35 36 40 46 51 51 52 52 48 46 47 47 49 48 49 54 56 55 54 57 59 61 64 64 58 56 58 59 59 58 58
21 22 22 25 27 25 17 13 29 24 33 36 30 30 37 40 41 39 45 45 45 48 53 55 54 53 50 44 44 45 44 45 49 51 51 49 52 55 58 59 57 57 58 62 64 63 63 63 62
24 27 25 27 28 26 16 15 17 32 22 22 38 40 40 39 41 41 44 49 52 52 52 50 48 49 48 45 44 44 45 48 52 53 55 56 57 58 60 62 63 64 67 69 70 69 67 66 65
23 30 26 24 26 29 32 27 29 30 39 33 38 40 41 43 47 53 55 53 54 54 54 52 47 46 45 45 45 47 49 51 53 55 57 59 61 63 64 66 69 71 73 73 72 72 71 69 67
27 30 26 26 28 28 33 34 33 34 38 42 48 43 48 52 55 56 55 55 54 54 53 50 46 45 44 46 51 53 54 55 57 59 62 64 66 67 69 70 72 73 73 73 74 74 74 73 73
Wind_Direction
346 10 31 50 57 83 218 192 205 245 278 283 276 300 305 295 270 299 261 9 17 124 340 30 53 37 36 104 111 132 145 139 133 137 139 146 156 166 178 193 211 210 220 217 227 238 252 261 269
338 8 12 36 79 65 218 247 152 239 291 311 317 328 344 306 327 298 272 284 339 60 150 14 12 26 317 222 193 227 185 169 170 211 250 254 273 283 280 274 276 277 276 276 274 272 271 274 274
340 348 6 26 112 200 254 199 233 268 281 319 302 302 304 311 318 307 307 314 319 4 21 238 329 303 284 263 229 245 281 297 298 297 297 300 298 292 291 293 294 294 294 289 289 286 283 281 280
341 349 353 1 226 207 234 266 264 267 275 292 300 303 324 321 317 297 294 307 307 243 249 293 272 288 250 231 227 233 241 255 276 288 292 291 294 294 295 297 299 301 303 302 296 290 286 283 281
13 352 350 246 264 275 271 276 264 258 283 311 10 263 329 322 312 300 276 289 301 308 263 263 271 264 261 257 242 230 236 241 247 255 266 272 275 279 281 283 284 285 288 290 291 291 291 289 285
16 20 16 262 286 276 284 292 300 285 296 316 318 296 342 322 312 293 277 273 285 296 302 290 279 277 276 270 266 258 253 253 255 261 263 267 270 271 272 273 273 273 271 272 274 276 280 285 288
15 24 165 225 288 281 279 283 293 295 286 286 295 322 313 338 310 303 291 278 276 277 281 287 283 274 282 278 273 275 273 272 270 267 267 268 268 269 269 268 269 271 271 269 266 266 269 271 274
349 358 344 283 278 277 254 260 271 282 286 292 301 266 291 325 322 296 286 275 269 269 276 278 282 277 272 274 274 271 270 271 271 273 273 271 270 271 274 275 275 274 275 275 273 267 262 265 269
334 334 334 302 289 292 268 256 245 268 279 283 287 279 297 311 303 310 292 278 268 266 270 272 272 274 276 274 273 273 272 272 277 280 279 277 276 278 279 282 283 281 280 271 269 264 259 260 265
310 306 316 316 321 316 302 272 261 257 263 276 276 274 292 293 291 291 295 288 283 274 270 271 273 273 273 271 269 271 274 276 280 284 282 278 276 273 273 273 273 276 281 267 272 255 256 260 263
297 292 306 312 310 315 319 306 293 263 265 272 266 266 282 284 281 280 283 283 281 272 272 269 269 271 272 271 272 274 277 281 281 282 279 278 281 279 278 276 272 265 259 268 275 248 254 259 256
283 286 295 297 305 303 311 318 300 280 266 278 272 272 276 277 275 278 280 276 278 281 277 278 278 274 272 266 265 267 272 274 278 279 279 280 279 278 276 275 273 269 267 269 268 267 267 266 266
277 284 289 293 300 303 307 310 312 307 277 271 267 271 269 269 271 269 272 275 277 277 277 275 274 274 276 271 265 269 268 271 274 275 277 278 277 278 278 275 272 266 272 272 272 273 275 273 273
272 279 285 289 295 295 302 297 308 304 309 290 274 265 270 263 260 263 268 273 278 280 279 278 271 269 269 268 269 271 273 275 275 272 271 272 275 278 277 278 281 278 273 271 270 270 269 270 270
273 275 282 280 283 289 292 290 295 298 298 294 289 275 265 265 266 263 267 270 274 275 273 273 276 273 270 270 271 274 275 277 276 275 274 270 271 272 274 276 275 275 271 273 272 272 272 272 272
274 276 280 281 280 279 285 288 292 296 290 287 294 292 297 306 275 269 267 271 273 276 274 271 269 267 268 268 268 270 273 274 276 276 276 277 279 280 278 276 275 273 272 272 272 271 270 271 273
279 267 268 279 279 278 276 276 285 293 287 287 287 286 288 289 297 304 304 275 270 269 269 269 265 261 259 261 263 265 266 268 270 269 269 273 273 273 275 279 280 277 274 273 273 273 273 273 273
249 270 268 268 282 278 277 274 278 287 289 288 292 291 294 297 297 302 303 298 301 278 274 276 262 263 262 260 256 253 253 254 258 263 268 266 267 270 273 276 279 276 275 277 279 276 273 271 271
266 266 269 268 271 276 280 276 282 281 289 289 290 291 298 296 298 302 303 297 299 296 294 294 285 271 275 275 275 262 261 260 263 261 266 268 268 269 268 274 275 273 270 272 274 272 270 271 271
267 265 266 268 270 280 281 285 287 283 288 287 289 296 298 293 295 295 297 299 302 291 292 295 293 289 290 290 286 285 281 280 280 278 278 276 279 277 269 268 270 271 270 273 271 273 267 267 267
270 267 271 274 277 282 287 286 285 276 280 289 288 292 297 293 293 295 295 296 301 293 300 301 296 290 287 286 286 287 288 287 289 283 279 280 273 272 268 267 266 266 268 269 269 270 273 271 269
272 273 273 272 274 277 269 273 277 273 292 284 289 287 289 289 287 291 295 300 304 303 310 308 303 299 293 291 292 292 290 289 285 284 285 285 283 280 276 275 272 270 263 265 267 267 270 268 266
274 272 274 274 274 277 273 278 287 261 270 281 283 277 288 285 289 295 299 299 302 302 302 299 296 294 294 290 290 290 291 290 287 285 285 281 282 283 277 277 273 268 266 268 267 266 267 267 265
275 280 280 282 282 280 290 275 281 267 275 267 299 294 289 291 299 297 300 302 302 302 307 311 307 298 291 288 287 287 289 286 285 283 280 280 283 282 280 273 268 271 272 271 271 269 270 271 274
281 285 286 285 276 302 278 266 267 275 284 287 293 287 290 301 298 295 300 299 296 299 309 315 317 316 301 292 288 292 293 289 286 283 281 281 277 275 275 276 273 276 277 277 277 275 275 276 275
290 284 285 285 278 258 286 300 278 289 284 286 287 295 300 298 300 300 294 294 298 301 306 312 312 312 309 297 295 294 294 291 285 282 286 287 286 284 283 279 278 279 277 276 277 278 279 278 277
280 276 284 293 294 299 314 284 274 253 279 279 291 293 301 294 297 294 293 300 306 307 308 308 309 307 304 297 294 293 293 292 287 288 287 285 286 287 287 284 280 277 276 278 281 282 281 279 278
271 279 283 294 300 294 267 259 280 282 275 288 300 298 298 292 297 300 301 304 305 306 306 307 302 302 302 298 295 293 292 290 294 292 288 286 285 285 284 283 281 281 282 284 284 284 284 283 282
273 282 281 288 288 291 290 283 287 286 295 307 297 301 295 296 299 302 307 310 311 312 311 311 308 304 301 297 295 295 295 293 291 288 287 286 285 284 283 283 284 284 285 286 285 285 285 284 282
274 274 285 285 285 291 289 295 294 295 300 298 301 302 300 300 302 305 311 315 315 312 311 309 306 302 299 299 298 298 296 294 293 291 290 289 288 287 286 286 285 285 286 287 286 285 285 284 284